Location: Fort Worth, Tx
(32.7431°N, 97.3695°W)
Time: 04:51:02
(UTC-04:00)

Vanguard 3 - Pass Details

Date: 27 February 2024
Orbit: 510 x 3234 km, 33.3° (Epoch: 24 April)

Event Time Altitude Azimuth Distance (km) Brightness Sun altitude
Rises 19:49:12 0° 225° (SW) 5,931 12.5 -5.9°
Reaches altitude 10° 19:52:44 10° 221° (SW) 5,219 12.0 -6.6°
Maximum altitude 20:09:04 58° 148° (SSE) 3,529 10.2 -10.1°
Enters shadow 20:26:10 14° 78° (ENE) 5,629 10.8 -13.7°
